LARETS

Last updated on Wed Jun 24 2026 00:03:44 GMT+0000 (Coordinated Universal Time)

1 27944U 03042F 26173.78874396 .00000019 00000+0 13284-4 0 9997 2 27944 98.4161 336.1111 0012723 24.4057 335.7744 14.63869639214184
UTC large
Height (km)
Speed (km/s)
/
Latitude / Longitude
Inclination (degrees)
Orbital Period (minutes)
Azimuth
Elevation
Range (km)
Doppler Factor

Next 0 passes for location: London (51.5072 / 0.1276)

No passes found over London.
LARETS